Regional Weather Roundup
Issued by NWS Sterling, VA

Home | Current Version | Previous Version | Text Only | Print | Product List | Glossary Off
Versions: 1 2 3 4 5 6 7 8 9 10 11 12 13 14 15 16 17 18 19 20 21 22 23 24 25 26 27 28 29 30 31 32 33 34 35 36 37 38 39 40 41 42 43 44 45 46 47 48 49

331
ASUS41 KLWX 202211
RWRLWX

REGIONAL WEATHER ROUNDUP
NATIONAL WEATHER SERVICE BALTIMORE MD/WASHINGTON DC
600 PM EDT FRI OCT 20 2017

Note: "FAIR" indicates few or no clouds below 12,000 feet
with no significant weather and/or obstructions to visibility.
 TC=TEMPERATURE CELSIUS

 * =Non NWS site. Station does not report precipitation (e.g. rain,
    snow, etc.), thunder, or fog.

DCZ001-MDZ009-015-VAZ040>042-051-053>054-202300-
WASHINGTON METRO

CITY           SKY/WX    TMP DP  RH WIND       PRES   REMARKS
WASHINGTON NAT PTCLDY    73  46  38 NW8       30.20R
DULLES         PTCLDY    71  44  37 N8        30.20S
ANDREWS AFB    CLEAR     71  46  40 NW7       30.18S
FT BELVOIR     CLEAR     72  45  37 CALM      30.19S
QUANTICO       CLEAR     71  49  45 NW5       30.20S
COLLEGE PARK*  CLEAR     71  45  39 CALM      30.19R
LEESBURG*      CLEAR     72  46  40 N3        30.21S
MANASSAS*      CLEAR     71  43  36 N7        30.20R
GAITHERSBURG*  CLEAR     67  46  47 CALM      30.21S

$$

MDZ006>007-011-014-202300-
BALTIMORE METRO

CITY           SKY/WX    TMP DP  RH WIND       PRES   REMARKS
BWI AIRPORT    PTCLDY    71  42  35 VRB3      30.18R
MD SCIENCE CTR   N/A     74  37  26 MISG      30.18S
MARTIN STATE   PTCLDY    72  45  37 NW5       30.19S
ANNAPOLIS      CLEAR     73  50  44 NW3       30.18R
FORT MEADE*    CLEAR     64  50  59 CALM      30.21R

$$

MDZ012-015-019>023-202300-
MARYLAND EASTERN SHORE

CITY           SKY/WX    TMP DP  RH WIND       PRES   REMARKS
OCEAN CITY     CLEAR     66  55  67 MISG      30.17R
SALISBURY      CLEAR     70  46  42 NW8       30.17R
CAMBRIDGE*     CLEAR     70  52  52 CALM      30.18R
EASTON*        CLEAR     70  46  43 CALM      30.21S

$$

MDZ017>025-202300-
SOUTHERN MARYLAND

CITY           SKY/WX    TMP DP  RH WIND       PRES   REMARKS
PATUXENT RIVER PTCLDY    70  52  52 NE3       30.18R
ST INIGOES     CLEAR     70  55  59 CALM      30.18R
LEONARDTOWN*   NOT AVBL

$$

MDZ003>005-202300-
NORTH CENTRAL MARYLAND

CITY           SKY/WX    TMP DP  RH WIND       PRES   REMARKS
FREDERICK*     CLEAR     73  37  27 CALM      30.22S
HAGERSTOWN APT CLEAR     72  39  30 NW3       30.20S
WESTMINSTER*   CLEAR     72  39  30 CALM      30.20S

$$

MDZ501>502-202300-
WESTERN MARYLAND

CITY           SKY/WX    TMP DP  RH WIND       PRES   REMARKS
OAKLAND*       CLEAR     61  34  36 CALM      30.26S
CUMBERLAND*    CLEAR     73  34  23 CALM      30.25S

$$

VAZ025>031-202300-
SHENANDOAH VALLEY

CITY           SKY/WX    TMP DP  RH WIND       PRES   REMARKS
WINCHESTER*    CLEAR     70  43  37 CALM      30.21S
FRONT ROYAL*   CLEAR     70  43  37 CALM      30.20S
LURAY*         CLEAR     73  46  38 NE3       30.20F
NEW MARKET*    CLEAR     68  44  40 CALM      30.20S
STAUNTON*      CLEAR     72  48  43 NE3       30.23S
WAYNESBORO*    CLEAR     71  49  44 NE5       30.22S

$$

WVZ021-048>050-054>055-202300-
EASTERN WEST VIRGINIA PANHANDLE

CITY           SKY/WX    TMP DP  RH WIND       PRES   REMARKS
MARTINSBURG    CLEAR     73  40  30 N5        30.20S
PETERSBURG*    CLEAR     70  50  50 CALM      30.21S

$$

VAZ036>039-050-202300-
CENTRAL FOOTHILLS

CITY           SKY/WX    TMP DP  RH WIND       PRES   REMARKS
CHARLOTTESVILL CLEAR     75  50  41 CALM      30.19S
CULPEPER*      CLEAR     74  42  32 CALM      30.21R
ORANGE*        CLEAR     72  52  49 CALM      30.19S
GORDONSVILLE*  CLEAR     71  54  55 CALM      30.18S
WARRENTON*     CLEAR     73  36  26 N3        30.20R

$$

VAZ055>057-202300-
NORTH AND CENTRAL PIEDMONT

CITY           SKY/WX    TMP DP  RH WIND       PRES   REMARKS
FREDERICKSBRG* CLEAR     74  47  38 N6        30.18S
STAFFORD*      CLEAR     69  50  50 CALM      30.23S

$$

NCZ024-NYZ072-PAZ021-071-VAZ022-071-202300-
OTHER REGIONAL OBSERVATIONS

CITY           SKY/WX    TMP DP  RH WIND       PRES   REMARKS
NEW YORK CITY  CLEAR     71  34  25 VRB6      30.14
PHILADELPHIA   PTCLDY    72  35  25 NW9       30.16R
PITTSBURGH     PTCLDY    70  32  24 CALM      30.23F
ROANOKE        CLEAR     72  52  49 SE3       30.23R
RICHMOND       PTCLDY    74  53  48 N6        30.18S
RALEIGH        PTCLDY    74  50  42 E6        30.20S

$$

ANZ530>537-202300-
MARINE OBSERVATIONS

STATION/POSITION TIME  TEMP    WIND        PRES
                       AIR SEA DIR/SP/G
                 (UTC) (F)     (DEG/KT/KT) (MB)
THOMAS PT LIGHT  2200   70 68  170/  2/  2   N/A
BALT KEY BRIDGE  2148   73     340/  9/ 11 1021.8R
COVE POINT       2148   69     310/  1/  2 1022.7R
LEWISETTA        2148   72 65  320/  3/  4 1022.1R
SOLOMONS ISLAND  2148   70 70   30/  5/  6 1021.7R
PINEY POINT      2112          310/  9/ 10   N/A

$$





USA.gov is the U.S. government's official web portal to all federal, state and local government web resources and services.